User: anonymous   Login
Location: Houston
(29.7631°N, 95.3631°W)
Time: 05:52:52
(UTC-05:00)
Language:

UNISAT 6 - Orbit

View from above orbital plane
View from above orbital plane
View from above satellite
View from above satellite

Ground track
Ground track

The orbit data is extracted from the following two-line orbital elements,

1 40012U 14033C   21264.12638036  .00000253  00000-0  44559-4 0  9993
2 40012  97.6706 101.4962 0056999 311.9165  47.7191 14.74376830390296
Epoch (UTC): 21 September 2021 03:01:59
Eccentricity: 0.0056999
inclination: 97.6706°
perigee height: 607 km
apogee height: 687 km
right ascension of ascending node: 101.4962°
argument of perigee: 311.9165°
revolutions per day: 14.74376830
mean anomaly at epoch: 47.7191°
orbit number at epoch: 39029

The dashed part of the orbit path shows where the satellite is in the earth's shadow,  

DLR